[[{"header":{"parameterUnit":"m.s-1","parameterCategory":1,"la1":30.2991,"la2":30.254,"lo1":-89.0895,"lo2":-89.0444,"dy":0.0017,"dx":0.0017,"nx":28,"ny":28,"refTime":"2024-07-11T21:00:00:Z","depth":0,"parameterNumber":2,"parameterNumberName":"U-component_of_WINDS"},"data":[0,0,0,0,0,0,0,0,0,0,0,0,0,0,0,0,0,0,0,0,0,0,0,0,0,0,0,0,0,0,0,0,0,0,0,0,0,0,0,0,0,0,0,0,0,0,0,0,0,0,0,0,0,0,0,0,0,0,1.217,1.217,0,1.2186,1.2186,1.2186,1.2169,1.2168,1.2168,1.2167,1.2182,1.2183,1.2184,0,0,0,0,0,0,0,0,0,0,0,0,0,1.2122,1.2123,1.217,1.217,1.217,1.2186,1.2186,1.2186,1.2169,1.2168,1.2168,1.2167,1.2182,1.2183,1.2184,0,0,0,0,0,0,0,0,0,0,0,0,0,1.2141,1.2124,1.217,1.2164,1.2163,1.2186,1.2186,1.2186,1.2169,1.2168,1.2167,1.2166,1.2181,1.2183,1.2184,1.2213,0,0,1.2189,1.219,0,0,0,0,0,0,0,0,1.214,1.2143,1.2164,1.2164,1.2164,1.2174,1.2175,1.2195,1.217,1.2167,1.2167,1.2166,1.218,1.2182,1.2187,1.2214,1.2215,1.2189,1.219,1.2191,1.2191,0,0,0,0,0,0,0,1.2139,1.2142,1.2176,1.2165,1.2164,1.2159,1.2161,1.2179,1.2179,1.2167,1.2166,1.2168,1.218,1.2185,1.2187,1.2215,1.2189,1.219,1.2191,1.2192,1.2265,1.2266,0,0,0,0,0,0,1.2138,1.2141,1.2176,1.2177,1.2149,1.2161,1.2163,1.2172,1.2179,1.2179,1.2169,1.2167,1.2183,1.2185,1.2188,1.2221,1.2191,1.2192,1.2193,1.2264,1.2266,1.2267,0,0,0,0,0,0,1.2137,1.2142,1.2175,1.2159,1.2162,1.2163,1.2173,1.2173,1.2178,1.218,1.218,1.2175,1.2183,1.2185,1.2207,1.2221,1.2193,1.2194,1.2263,1.2265,1.2266,1.2289,0,0,0,0,0,0,1.2136,1.2141,1.2153,1.2159,1.2163,1.2195,1.2174,1.2174,1.2181,1.2179,1.2185,1.2185,1.2182,1.2205,1.2208,1.2223,1.2195,1.2262,1.2264,1.2266,1.2287,1.2291,1.2295,0,0,0,0,0,1.2135,1.2159,1.2154,1.2158,1.2178,1.2196,1.2198,1.2194,1.2183,1.2194,1.2195,1.2185,1.2219,1.2207,1.2211,1.2226,1.2261,1.2263,1.2265,1.2285,1.229,1.2295,0,0,0,0,0,0,1.2154,1.2159,1.2154,1.2181,1.2188,1.2193,1.2207,1.22,1.221,1.2207,1.2202,1.2203,1.2226,1.2228,1.2214,1.2254,1.2238,1.2241,1.2252,1.2257,1.2261,1.2259,1.2197,0,0,0,0,0,1.2162,1.2176,1.218,1.2203,1.2207,1.2206,1.2214,1.221,1.2217,1.222,1.2222,1.2229,1.2241,1.2249,1.226,1.2287,1.2288,1.23,1.2304,1.2307,1.231,1.2323,1.2328,1.2274,1.2274,1.2274,0,0,1.2177,1.2182,1.2191,1.2207,1.2212,1.2227,1.2209,1.2225,1.2235,1.2222,1.2242,1.2244,1.2251,1.2275,1.2286,1.2278,1.2325,1.231,1.2313,1.2314,1.2326,1.2331,1.2336,1.2276,1.2276,1.2275,0,0,1.2213,1.2218,1.2238,1.2243,1.2251,1.225,1.2255,1.2261,1.2262,1.2282,1.2272,1.2284,1.2305,1.231,1.2316,1.2353,1.2344,1.2356,1.2377,1.239,1.2394,1.2398,1.2411,1.2415,1.2359,1.2359,1.2359,0,1.2231,1.2253,1.2249,1.2266,1.2272,1.2261,1.2281,1.2286,1.2297,1.2301,1.2292,1.2318,1.2322,1.2347,1.2356,1.2361,1.2365,1.2356,1.2394,1.2398,1.2401,1.2413,1.2418,1.2361,1.236,1.236,1.236,0,1.2275,1.229,1.2305,1.2316,1.2324,1.2342,1.234,1.2349,1.2344,1.2344,1.2365,1.2369,1.2381,1.2386,1.2382,1.241,1.2405,1.2395,1.2379,1.2408,1.2419,1.2423,1.2363,1.2362,1.2362,1.2361,0,0,1.2323,1.2332,1.2337,1.2342,1.2349,1.236,1.2377,1.2389,1.2396,1.2404,1.2418,1.2436,1.2427,1.2433,1.2429,1.2441,1.2469,1.2429,1.2429,1.2436,1.2499,1.2506,1.2511,1.2463,1.2464,1.2465,1.2498,0,1.2359,1.2389,1.2385,1.2414,1.2427,1.2416,1.2431,1.2437,1.2437,1.2448,1.2448,1.246,1.2448,1.2451,1.2462,1.2463,1.2481,1.246,1.2475,1.2476,1.2473,1.2517,1.2525,1.2556,1.2503,1.2503,1.2504,0,1.2404,1.2414,1.2444,1.2448,1.2454,1.2467,1.2477,1.2488,1.2494,1.2493,1.25,1.2493,1.2509,1.2493,1.2515,1.2501,1.2507,1.2508,1.2509,1.251,1.2491,1.2519,1.2566,1.2571,1.2511,1.251,1.251,0,1.2436,1.2456,1.2476,1.2481,1.2487,1.2496,1.2499,1.2504,1.2511,1.252,1.2524,1.2534,1.254,1.2547,1.2544,1.2532,1.2566,1.2549,1.2565,1.2565,1.2573,1.2572,1.2621,1.2577,1.2577,1.2577,1.2577,0,1.2476,1.2494,1.2491,1.2503,1.2523,1.2518,1.2538,1.254,1.2544,1.2556,1.2547,1.2559,1.2553,1.2564,1.2561,1.2579,1.2582,1.2581,1.258,1.2582,1.2582,1.2585,1.2583,1.2578,1.2578,1.2578,1.2577,0,1.2515,1.2513,1.2534,1.2538,1.254,1.2554,1.2557,1.2568,1.2568,1.2583,1.2586,1.2585,1.2597,1.2594,1.2608,1.2606,1.2628,1.2625,1.2626,1.2625,1.2641,1.2639,1.2694,1.27,1.2652,1.2653,1.2653,0,1.254,1.2554,1.2559,1.2567,1.257,1.2582,1.2589,1.2585,1.2592,1.26,1.261,1.2621,1.263,1.265,1.265,1.266,1.2656,1.2674,1.2657,1.2658,1.2656,1.2655,1.2656,1.2678,1.2678,1.2679,1.2679,0,1.2585,1.2583,1.2594,1.2604,1.2612,1.262,1.2627,1.2633,1.2629,1.2638,1.265,1.2657,1.267,1.2681,1.269,1.2693,1.2685,1.2684,1.2688,1.269,1.269,1.269,1.2635,1.2683,1.2683,1.2682,1.2682,1.2682,1.2617,1.2629,1.2634,1.2646,1.265,1.2657,1.2667,1.2668,1.2678,1.2689,1.2685,1.2699,1.2704,1.2715,1.2719,1.2729,1.2722,1.2728,1.2729,1.2731,1.2733,1.2689,1.2731,1.273,1.273,1.273,1.273,0,1.2661,1.2664,1.2674,1.2684,1.2693,1.2685,1.2692,1.27,1.2713,1.2718,1.2727,1.274,1.2751,1.2752,1.2761,1.2769,1.2766,1.2772,1.2771,1.2772,1.2739,1.2734,1.2775,1.2775,1.2775,1.2775,1.2775,1.2775,1.2685,1.2704,1.2702,1.2723,1.2726,1.2739,1.2744,1.2749,1.2753,1.2769,1.2778,1.2778,1.2781,1.2791,1.28,1.28,1.2804,1.2811,1.281,1.2779,1.2774,1.277,1.2765,1.2812,1.2812,1.2842,1.2842,1.2842]},{"header":{"parameterUnit":"m.s-1","parameterCategory":1,"la1":30.2991,"la2":30.254,"lo1":-89.0895,"lo2":-89.0444,"dy":0.0017,"dx":0.0017,"nx":28,"ny":28,"refTime":"2024-07-11T21:00:00:Z","depth":0,"parameterNumber":3,"parameterNumberName":"V-component_of_WINDS"},"data":[0,0,0,0,0,0,0,0,0,0,0,0,0,0,0,0,0,0,0,0,0,0,0,0,0,0,0,0,0,0,0,0,0,0,0,0,0,0,0,0,0,0,0,0,0,0,0,0,0,0,0,0,0,0,0,0,0,0,-1.3365,-1.3366,0,-1.3453,-1.3454,-1.3455,-1.3485,-1.3485,-1.3484,-1.3484,-1.3573,-1.3576,-1.3579,0,0,0,0,0,0,0,0,0,0,0,0,0,-1.3224,-1.3227,-1.3365,-1.3366,-1.3367,-1.3453,-1.3454,-1.3455,-1.3485,-1.3485,-1.3484,-1.3484,-1.3572,-1.3576,-1.3579,0,0,0,0,0,0,0,0,0,0,0,0,0,-1.3296,-1.3227,-1.3365,-1.3393,-1.3396,-1.3452,-1.3454,-1.3455,-1.3485,-1.3485,-1.3484,-1.3484,-1.3571,-1.3575,-1.3579,-1.3615,0,0,-1.3592,-1.3594,0,0,0,0,0,0,0,0,-1.3292,-1.3301,-1.3387,-1.3391,-1.3395,-1.3457,-1.3437,-1.3509,-1.3485,-1.3451,-1.3484,-1.3483,-1.3535,-1.3542,-1.356,-1.3619,-1.3623,-1.3592,-1.3595,-1.3596,-1.3597,0,0,0,0,0,0,0,-1.3287,-1.3297,-1.34,-1.3389,-1.3393,-1.3401,-1.341,-1.3451,-1.3495,-1.3454,-1.3456,-1.3466,-1.3537,-1.3556,-1.3562,-1.3624,-1.3592,-1.3596,-1.3598,-1.36,-1.3718,-1.3718,0,0,0,0,0,0,-1.3277,-1.3293,-1.3397,-1.3402,-1.3341,-1.3404,-1.3414,-1.3438,-1.3495,-1.3503,-1.3467,-1.3468,-1.3549,-1.3557,-1.3565,-1.3611,-1.3596,-1.36,-1.3602,-1.3717,-1.3718,-1.3719,0,0,0,0,0,0,-1.3274,-1.3286,-1.3394,-1.3349,-1.3363,-1.3407,-1.3433,-1.344,-1.3459,-1.3504,-1.3512,-1.3478,-1.3549,-1.356,-1.3602,-1.3614,-1.3602,-1.3606,-1.3716,-1.3717,-1.3718,-1.3702,0,0,0,0,0,0,-1.327,-1.3285,-1.3298,-1.3349,-1.3365,-1.3429,-1.3433,-1.3442,-1.3465,-1.3467,-1.3517,-1.3524,-1.3549,-1.3596,-1.3606,-1.362,-1.3609,-1.3715,-1.3717,-1.3718,-1.3701,-1.3702,-1.3702,0,0,0,0,0,-1.3265,-1.329,-1.3299,-1.3311,-1.3383,-1.3429,-1.3439,-1.3467,-1.3466,-1.3481,-1.351,-1.3523,-1.3612,-1.36,-1.3612,-1.3627,-1.3715,-1.3716,-1.3718,-1.3701,-1.3702,-1.3702,0,0,0,0,0,0,-1.324,-1.3297,-1.3308,-1.335,-1.3385,-1.3434,-1.3453,-1.3467,-1.3503,-1.3503,-1.3537,-1.3548,-1.3588,-1.3612,-1.3598,-1.3664,-1.3664,-1.3668,-1.3647,-1.3648,-1.3649,-1.3642,-1.3612,0,0,0,0,0,-1.3239,-1.3272,-1.3321,-1.3353,-1.337,-1.3409,-1.343,-1.3449,-1.3486,-1.3501,-1.3534,-1.3569,-1.3605,-1.3628,-1.3664,-1.3705,-1.3717,-1.3721,-1.3722,-1.3722,-1.3725,-1.3749,-1.3752,-1.3724,-1.3724,-1.3724,0,0,-1.3239,-1.3274,-1.3293,-1.3349,-1.3378,-1.3412,-1.3421,-1.3456,-1.3481,-1.3506,-1.3549,-1.3574,-1.3616,-1.3658,-1.3679,-1.368,-1.3735,-1.3724,-1.3724,-1.3727,-1.3751,-1.3753,-1.3756,-1.3725,-1.3725,-1.3724,0,0,-1.3254,-1.3284,-1.3315,-1.3344,-1.3388,-1.3414,-1.3421,-1.3469,-1.3487,-1.353,-1.355,-1.3581,-1.3642,-1.3672,-1.3694,-1.3722,-1.3735,-1.3733,-1.3736,-1.3759,-1.3761,-1.3763,-1.3773,-1.3776,-1.3736,-1.3736,-1.3736,0,-1.3247,-1.3298,-1.3329,-1.3363,-1.3387,-1.3413,-1.3444,-1.3471,-1.3524,-1.3541,-1.3541,-1.3619,-1.3649,-1.3699,-1.3706,-1.3724,-1.3733,-1.3727,-1.3758,-1.3761,-1.3763,-1.3773,-1.3777,-1.3735,-1.3735,-1.3735,-1.3736,0,-1.3288,-1.3323,-1.3343,-1.3394,-1.3421,-1.3453,-1.3489,-1.3513,-1.353,-1.3555,-1.3599,-1.3637,-1.368,-1.3694,-1.3711,-1.3746,-1.3745,-1.3752,-1.3752,-1.3765,-1.3774,-1.3778,-1.3734,-1.3735,-1.3735,-1.3735,0,0,-1.3289,-1.3358,-1.3364,-1.3388,-1.3439,-1.3467,-1.3501,-1.3544,-1.3564,-1.36,-1.3629,-1.3681,-1.3688,-1.3714,-1.3734,-1.3755,-1.3774,-1.3759,-1.376,-1.376,-1.3816,-1.381,-1.3814,-1.3784,-1.3785,-1.3785,-1.3812,0,-1.3311,-1.3373,-1.3402,-1.345,-1.3483,-1.3509,-1.3538,-1.3573,-1.3598,-1.363,-1.3658,-1.3694,-1.37,-1.3716,-1.3737,-1.3767,-1.3786,-1.3766,-1.3811,-1.3813,-1.3799,-1.3819,-1.3813,-1.3837,-1.3816,-1.3817,-1.3817,0,-1.3344,-1.3381,-1.3433,-1.3481,-1.3496,-1.3522,-1.3564,-1.3594,-1.3634,-1.3651,-1.3681,-1.3701,-1.3738,-1.3736,-1.3788,-1.3774,-1.3794,-1.3812,-1.3814,-1.3818,-1.3815,-1.3824,-1.3845,-1.3848,-1.3824,-1.3823,-1.3823,0,-1.3339,-1.3402,-1.3441,-1.3461,-1.3517,-1.3535,-1.356,-1.36,-1.3624,-1.3661,-1.3677,-1.3718,-1.374,-1.3772,-1.3802,-1.3798,-1.3851,-1.3852,-1.3866,-1.3865,-1.3875,-1.3874,-1.3899,-1.389,-1.389,-1.389,-1.389,0,-1.336,-1.3391,-1.344,-1.3464,-1.3499,-1.3533,-1.3567,-1.3594,-1.3629,-1.3659,-1.3683,-1.3711,-1.375,-1.3783,-1.3807,-1.3847,-1.3857,-1.3871,-1.3877,-1.3869,-1.3867,-1.3882,-1.3881,-1.3891,-1.389,-1.389,-1.389,0,-1.336,-1.3394,-1.3439,-1.3489,-1.3502,-1.3526,-1.357,-1.3594,-1.3621,-1.3659,-1.367,-1.3712,-1.3752,-1.3786,-1.3838,-1.3855,-1.3895,-1.3903,-1.3881,-1.3884,-1.3897,-1.3895,-1.3932,-1.3938,-1.3925,-1.3925,-1.3925,0,-1.3371,-1.3395,-1.3448,-1.347,-1.3494,-1.3529,-1.3554,-1.3589,-1.3614,-1.3662,-1.3681,-1.3723,-1.3758,-1.382,-1.3856,-1.3896,-1.3904,-1.3915,-1.3911,-1.3901,-1.3904,-1.3902,-1.3905,-1.3914,-1.3914,-1.3914,-1.3914,0,-1.3386,-1.3402,-1.3437,-1.3478,-1.3507,-1.3542,-1.3576,-1.3593,-1.3634,-1.3661,-1.3702,-1.3729,-1.3783,-1.3824,-1.3869,-1.3895,-1.3911,-1.3916,-1.3921,-1.3912,-1.3899,-1.3906,-1.3881,-1.3914,-1.3914,-1.3914,-1.3914,-1.3914,-1.3391,-1.3414,-1.3456,-1.3494,-1.3524,-1.3556,-1.3582,-1.3612,-1.3647,-1.3694,-1.3712,-1.3754,-1.3795,-1.3856,-1.3882,-1.3916,-1.3918,-1.3926,-1.3928,-1.3929,-1.3928,-1.3894,-1.3924,-1.3924,-1.3924,-1.3924,-1.3924,0,-1.3408,-1.3436,-1.3471,-1.3519,-1.3549,-1.3563,-1.3603,-1.3627,-1.3664,-1.37,-1.3734,-1.3782,-1.3822,-1.3861,-1.3904,-1.3923,-1.3932,-1.3933,-1.3931,-1.3937,-1.3923,-1.3914,-1.3925,-1.3925,-1.3925,-1.3925,-1.3925,-1.3925,-1.3419,-1.3459,-1.348,-1.3535,-1.3563,-1.3604,-1.3625,-1.3656,-1.3685,-1.3737,-1.377,-1.3796,-1.3833,-1.3879,-1.3917,-1.3927,-1.3941,-1.394,-1.3953,-1.3939,-1.3938,-1.3938,-1.3929,-1.3943,-1.3943,-1.3964,-1.3964,-1.3965]}]]